This is the latest recevied weather packets stored in our database for station/object KB0RPJ. If no packets are shown the sender has not sent any weather packets the latest 10 day(s).
| Time | Temp. | Humidity | Pressure | Rain* | Wind** | Luminosity | Snow |
|---|---|---|---|---|---|---|---|
| 1777472405 | 10° C | 75% | 1020.1 hPa | 0 mm | - | 154 W/m² | - |
| 1777472104 | 10° C | 74% | 1020.1 hPa | 0 mm | - | 265 W/m² | - |
| 1777471805 | 9.44° C | 74% | 1020.1 hPa | 0 mm | - | 173 W/m² | - |
| 1777471504 | 9.44° C | 75% | 1020.3 hPa | 0 mm | - | 103 W/m² | - |
| 1777471205 | 9.44° C | 76% | 1020.3 hPa | 0 mm | - | 104 W/m² | - |
| 1777470904 | 9.44° C | 75% | 1020.3 hPa | 0 mm | - | 78 W/m² | - |
| 1777470605 | 9.44° C | 76% | 1020.3 hPa | 0 mm | - | 83 W/m² | - |
| 1777470306 | 8.89° C | 76% | 1020.3 hPa | 0 mm | - | 74 W/m² | - |
| 1777470005 | 8.89° C | 78% | 1020.3 hPa | 0 mm | - | 73 W/m² | - |
| 1777469705 | 8.89° C | 78% | 1020.2 hPa | 0 mm | - | 69 W/m² | - |
| 1777469405 | 8.89° C | 78% | 1020.3 hPa | 0 mm | - | 68 W/m² | - |
| 1777469118 | 8.89° C | 78% | 1020.2 hPa | 0 mm | - | 80 W/m² | - |
| 1777468805 | 8.33° C | 78% | 1020.2 hPa | 0 mm | - | 104 W/m² | - |
| 1777468505 | 8.33° C | 79% | 1020.2 hPa | 0 mm | - | 80 W/m² | - |
| 1777468206 | 8.33° C | 79% | 1020 hPa | 0 mm | - | 179 W/m² | - |
| 1777467905 | 8.33° C | 80% | 1019.9 hPa | 0 mm | - | 87 W/m² | - |
| 1777467615 | 8.33° C | 80% | 1019.9 hPa | 0 mm | - | 73 W/m² | - |
| 1777467305 | 8.33° C | 80% | 1019.9 hPa | 0 mm | - | 78 W/m² | - |
| 1777467007 | 7.78° C | 80% | 1019.8 hPa | 0 mm | - | 57 W/m² | - |
| 1777466705 | 7.78° C | 80% | 1019.8 hPa | 0 mm | - | 58 W/m² | - |
| 1777466405 | 7.78° C | 80% | 1019.8 hPa | 0 mm | - | 57 W/m² | - |
| 1777466105 | 7.78° C | 80% | 1019.7 hPa | 0 mm | - | 48 W/m² | - |
| 1777465806 | 7.78° C | 80% | 1019.7 hPa | 0 mm | - | 47 W/m² | - |
| 1777465505 | 7.78° C | 80% | 1019.5 hPa | 0 mm | - | 44 W/m² | - |
| 1777465205 | 7.78° C | 81% | 1019.4 hPa | 0 mm | - | 42 W/m² | - |
* Rain latest hour (hover to see other rain measurements)
** Current wind speed in m/s (hover to see current wind gust speed)